Weather History for KNPA - February, 2013

Change the Weather History Date:

Thursday, February 7, 2013

  Actual Average Record
Temperature  
Mean Temperature 66 °F -  
Max Temperature 75 °F 60 °F 75 °F (1999)
Min Temperature 55 °F 44 °F 30 °F (2014)
Cooling Degree Days 1    
Growing Degree Days 16 (Base 50)    
Moisture  
Dew Point 60 °F    
Average Humidity 88    
Maximum Humidity 100    
Minimum Humidity 51    
Precipitation  
Precipitation 1.95 in - - ()
Sea Level Pressure  
Sea Level Pressure 29.87 in    
Wind  
Wind Speed 9 mph (NNE)    
Max Wind Speed 23 mph    
Max Gust Speed 32 mph    
Visibility 7 miles    
Events Fog , Rain    
Averages and records for this station are not official NWS values.
T = Trace of Precipitation, MM = Missing Value Source: NWS Daily Summary

Daily Weather History Graph

Daily Weather History Graph

Search for Another Location

Airport or City:

Trip Planner

Search our weather history database for the weather conditions in past years. The results will help you decide how hot, cold, wet, or windy it might be!

Date:

Astronomy

Feb. 07, 2013 Rise Set
Actual Time 6:35 AM CST 5:31 PM CST
Civil Twilight 6:11 AM CST 5:56 PM CST
Nautical Twilight 5:42 AM CST 6:24 PM CST
Astronomical Twilight 5:14 AM CST 6:52 PM CST
Moon 4:08 AM CST (2/7) 3:00 PM CST (2/7)
Length of Visible Light 11h 45m
Length of Day
10h 55m
Waning Crescent, 9% of the Moon is Illuminated
Feb 7
Waning Crescent
Feb 10
New
Feb 17
First Quarter
Feb 25
Full
Mar 4
Last Quarter

Hourly Weather History & Observations

Time (CST) Temp. Dew Point Humidity Pressure Visibility Wind Dir Wind Speed Gust Speed Precip Events Conditions
12:56 AM 63.0 °F 61.0 °F 93% 30.02 in 10.0 mi East 6.9 mph - N/A   Mostly Cloudy
1:56 AM 61.0 °F 60.1 °F 97% 29.97 in 10.0 mi ENE 9.2 mph - 0.00 in Rain Light Rain
2:56 AM 61.0 °F 60.1 °F 97% 29.96 in 10.0 mi East 8.1 mph - 0.00 in Rain Light Rain
3:03 AM 60.8 °F 60.8 °F 100% 29.96 in 10.0 mi East 8.1 mph - 0.00 in Rain Light Rain
3:53 AM 60.8 °F 60.8 °F 100% 29.96 in 5.0 mi ENE 6.9 mph - 0.01 in Rain Rain
3:56 AM 61.0 °F 60.1 °F 97% 29.96 in 5.0 mi ENE 9.2 mph - 0.02 in Rain Rain
4:05 AM 60.8 °F 60.8 °F 100% 29.95 in 5.0 mi NE 10.4 mph - 0.00 in Rain Rain
4:10 AM 60.8 °F 60.8 °F 100% 29.94 in 5.0 mi ENE 11.5 mph - N/A Rain Rain
4:22 AM 60.8 °F 60.8 °F 100% 29.94 in 4.0 mi ENE 9.2 mph - N/A Rain Rain
4:56 AM 60.1 °F 60.1 °F 100% 29.93 in 6.0 mi East 10.4 mph - N/A Rain Rain
5:56 AM 61.0 °F 60.1 °F 97% 29.87 in 4.0 mi East 15.0 mph - 0.03 in Rain Rain
6:48 AM 60.8 °F 60.8 °F 100% 29.82 in 1.5 mi ENE 16.1 mph 25.3 mph 0.05 in Rain Rain
6:56 AM 61.0 °F 60.1 °F 97% 29.80 in 1.0 mi ENE 20.7 mph 26.5 mph 0.08 in Rain Heavy Rain
7:24 AM 60.8 °F 60.8 °F 100% 29.78 in 1.5 mi ENE 23.0 mph 32.2 mph 0.15 in Rain Heavy Rain
7:30 AM 62.6 °F 60.8 °F 94% 29.78 in 2.0 mi East 12.7 mph 31.1 mph 0.15 in Rain Rain
7:45 AM 62.6 °F 60.8 °F 94% 29.82 in 0.5 mi Variable 4.6 mph 21.9 mph 0.32 in Fog , Rain Heavy Rain
7:56 AM 62.1 °F 61.0 °F 96% 29.81 in 0.2 mi NNE 12.7 mph 20.7 mph 0.95 in Fog , Rain Heavy Rain
8:08 AM 62.6 °F 62.6 °F 100% 29.84 in 0.8 mi NW 8.1 mph 20.7 mph 0.33 in Rain Heavy Rain
8:17 AM 64.4 °F 62.6 °F 94% 29.82 in 3.0 mi SSW 11.5 mph 20.7 mph 0.33 in Rain Light Rain
8:45 AM 66.2 °F 64.4 °F 94% 29.78 in 2.0 mi South 10.4 mph - 0.41 in Rain Heavy Rain
8:50 AM 66.2 °F 64.4 °F 94% 29.78 in 1.0 mi South 8.1 mph - 0.46 in Rain Rain
8:56 AM 66.9 °F 66.0 °F 97% 29.81 in 0.5 mi West 12.7 mph 21.9 mph 0.62 in Fog , Rain Heavy Rain
9:09 AM 62.6 °F 62.6 °F 100% 29.84 in 2.0 mi West 8.1 mph 17.3 mph 0.25 in Rain Heavy Rain
9:16 AM 62.6 °F 62.6 °F 100% 29.84 in 5.0 mi NW 11.5 mph 21.9 mph 0.25 in Rain Light Rain
9:25 AM 62.6 °F 62.6 °F 100% 29.85 in 7.0 mi NW 6.9 mph 24.2 mph 0.25 in Rain Light Rain
9:33 AM 62.6 °F 62.6 °F 100% 29.85 in 7.0 mi NNW 8.1 mph - 0.25 in   Overcast
9:56 AM 62.1 °F 60.1 °F 93% 29.87 in 10.0 mi NNW 10.4 mph - 0.25 in   Mostly Cloudy
10:22 AM 64.4 °F 60.8 °F 88% 29.85 in 10.0 mi North 11.5 mph - N/A   Mostly Cloudy
10:56 AM 66.0 °F 60.1 °F 81% 29.85 in 10.0 mi North 15.0 mph 23.0 mph N/A   Mostly Cloudy
11:50 AM 69.8 °F 59.0 °F 68% 29.85 in 10.0 mi North 15.0 mph 27.6 mph N/A   Mostly Cloudy
11:56 AM 69.1 °F 59.0 °F 70% 29.86 in 10.0 mi North 13.8 mph 21.9 mph N/A   Mostly Cloudy
12:18 PM 69.8 °F 59.0 °F 68% 29.84 in 10.0 mi North 12.7 mph 25.3 mph N/A   Scattered Clouds
12:56 PM 73.0 °F 59.0 °F 61% 29.83 in 10.0 mi NE 10.4 mph - N/A   Partly Cloudy
1:56 PM 75.0 °F 57.0 °F 53% 29.83 in 10.0 mi Variable 5.8 mph - N/A   Partly Cloudy
2:56 PM 73.9 °F 55.0 °F 52% 29.83 in 10.0 mi Variable 3.5 mph - N/A   Scattered Clouds
3:56 PM 75.0 °F 55.9 °F 51% 29.84 in 10.0 mi West 6.9 mph - N/A   Scattered Clouds
4:56 PM 72.0 °F 55.9 °F 57% 29.86 in 10.0 mi Calm Calm - N/A   Scattered Clouds
5:56 PM 66.9 °F 57.0 °F 70% 29.88 in 10.0 mi West 5.8 mph - N/A   Scattered Clouds
6:56 PM 64.0 °F 57.9 °F 80% 29.91 in 10.0 mi WNW 4.6 mph - N/A   Partly Cloudy
7:56 PM 60.1 °F 57.0 °F 90% 29.92 in 10.0 mi North 3.5 mph - N/A   Clear
8:56 PM 61.0 °F 55.9 °F 83% 29.94 in 10.0 mi North 5.8 mph - N/A   Clear
9:56 PM 60.1 °F 55.9 °F 86% 29.94 in 10.0 mi North 4.6 mph - N/A   Clear
10:56 PM 57.0 °F 55.0 °F 93% 29.95 in 10.0 mi Calm Calm - N/A   Clear
11:56 PM 55.9 °F 55.0 °F 97% 29.96 in 10.0 mi NNW 3.5 mph - N/A   Clear